Weather History for Granada, Spain

Change the Weather History Date:

Thursday, January 23, 2014

  Actual Average Record
Temperature  
Mean Temperature 49 °F -  
Max Temperature 56 °F 57 °F 69 °F (2008)
Min Temperature 42 °F 33 °F 24 °F (2000)
Degree Days  
Heating Degree Days 16    
Moisture  
Dew Point 37 °F    
Average Humidity 65    
Maximum Humidity 99    
Minimum Humidity 31    
Precipitation  
Precipitation 0.03 in - - ()
Sea Level Pressure  
Sea Level Pressure 30.22 in    
Wind  
Wind Speed 7 mph ()    
Max Wind Speed 18 mph    
Max Gust Speed -    
Visibility 10.4 miles    
Events Rain    
Averages and records for this station are not official NWS values.
T = Trace of Precipitation, MM = Missing Value Source: Averaged Metar Reports

Daily Weather History Graph

Daily Weather History Graph

Search for Another Location

Airport:

Trip Planner

Search our weather history database for the weather conditions in past years. The results will help you decide how hot, cold, wet, or windy it might be!

Date:

Astronomy

Jan. 23, 2014 Rise Set
Actual Time 8:24 AM CET 6:29 PM CET
Civil Twilight 7:56 AM CET 6:57 PM CET
Nautical Twilight 7:24 AM CET 7:29 PM CET
Astronomical Twilight 6:53 AM CET 8:00 PM CET
Moon 12:37 AM CET (1/23) 12:01 PM CET (1/23)
Length of Visible Light 11h 01m
Length of Day
10h 05m
Waning Gibbous, 58% of the Moon is Illuminated
Jan 23
Waning Gibbous
Jan 24
Last Quarter
Jan 30
New
Feb 6
First Quarter
Feb 15
Full

Hourly Weather History & Observations

Time (CET) Temp. Windchill Dew Point Humidity Pressure Visibility Wind Dir Wind Speed Gust Speed Precip Events Conditions
12:00 AM 45 °F - 44 °F 93% 30.08 in 19 mi Calm Calm - - Rain Drizzle
1:00 AM 44 °F - 43 °F 96% 30.08 in 3 mi WNW 2.3 mph - -   Mist
2:00 AM 43 °F - 43 °F 99% 30.09 in 9 mi South 3.5 mph - -   Mist
3:00 AM 44 °F - 43 °F 97% 30.08 in 4 mi Calm Calm - - Rain Drizzle
4:00 AM 44 °F - 43 °F 96% 30.09 in - Calm Calm - - Rain Light Drizzle
5:00 AM 44 °F - 42 °F 89% 30.11 in 19 mi NNE 6.9 mph - -   Mist
6:00 AM 43 °F - 39 °F 81% 30.13 in 8 mi NE 6.9 mph - - Rain Rain
6:00 AM 44.6 °F 41.4 °F 41.0 °F 87% 30.09 in 6.2 mi NE 5.8 mph - N/A Rain Light Rain
6:30 AM 44.6 °F 39.7 °F 39.2 °F 81% 30.09 in 6.2 mi ENE 9.2 mph - N/A   Mostly Cloudy
7:00 AM 44 °F - 37 °F 68% 30.14 in 19 mi ENE 15.0 mph - - Rain Light Rain
7:00 AM 44.6 °F 38.4 °F 37.4 °F 76% 30.09 in 6.2 mi ENE 12.7 mph - N/A   Mostly Cloudy
7:30 AM 44.6 °F 37.8 °F 37.4 °F 76% 30.09 in 6.2 mi NE 15.0 mph - N/A   Mostly Cloudy
8:00 AM 43 °F - 37 °F 71% 30.16 in 19 mi NNE 11.5 mph - -   Scattered Clouds
8:00 AM 42.8 °F 36.2 °F 37.4 °F 81% 30.09 in 6.2 mi NNE 12.7 mph - N/A   Mostly Cloudy
8:30 AM 44.6 °F 38.1 °F 37.4 °F 76% 30.12 in 6.2 mi NNE 13.8 mph - N/A   Mostly Cloudy
9:00 AM 45 °F - 37 °F 66% 30.18 in 19 mi North 4.6 mph - -  
9:00 AM 42.8 °F 40.1 °F 37.4 °F 81% 30.12 in 6.2 mi North 4.6 mph - N/A   Partly Cloudy
9:30 AM 44.6 °F 42.2 °F 37.4 °F 76% 30.15 in 6.2 mi North 4.6 mph - N/A   Partly Cloudy
10:00 AM 48 °F - 38 °F 60% 30.19 in 19 mi North 6.9 mph - -   Scattered Clouds
10:00 AM 46.4 °F 45.2 °F 37.4 °F 71% 30.15 in 6.2 mi North 3.5 mph - N/A   Partly Cloudy
10:30 AM 46.4 °F 41.5 °F 39.2 °F 76% 30.18 in 6.2 mi North 10.4 mph - N/A   Partly Cloudy
11:00 AM 49 °F - 38 °F 55% 30.22 in 19 mi NNE 10.4 mph - -  
11:00 AM 48.2 °F - 39.2 °F 71% 30.18 in 6.2 mi NNE 6.9 mph - N/A   Partly Cloudy
11:30 AM 50.0 °F - 37.4 °F 62% 30.21 in 6.2 mi North 5.8 mph - N/A   Partly Cloudy
12:00 PM 51 °F - 39 °F 54% 30.23 in 19 mi NNE 10.4 mph - -  
12:00 PM 50.0 °F - 39.2 °F 66% 30.21 in 6.2 mi NNE 9.2 mph - N/A   Partly Cloudy
12:30 PM 50.0 °F - 39.2 °F 66% 30.21 in 6.2 mi ENE 11.5 mph - N/A   Partly Cloudy
1:00 PM 52 °F - 36 °F 44% 30.22 in 19 mi NNE 11.5 mph - -   Scattered Clouds
1:00 PM 51.8 °F - 37.4 °F 58% 30.21 in 6.2 mi NE 11.5 mph - N/A   Partly Cloudy
1:30 PM 51.8 °F - 37.4 °F 58% 30.21 in 6.2 mi NE 18.4 mph - N/A   Partly Cloudy
2:00 PM 54 °F - 35 °F 37% 30.22 in 19 mi ENE 11.5 mph - -   Scattered Clouds
2:00 PM 53.6 °F - 35.6 °F 51% 30.21 in 6.2 mi ENE 11.5 mph - N/A   Partly Cloudy
2:30 PM 53.6 °F - 35.6 °F 51% 30.21 in 6.2 mi ENE 8.1 mph - N/A   Partly Cloudy
3:00 PM 56 °F - 36 °F 34% 30.22 in 19 mi NNE 10.4 mph - -  
3:00 PM 53.6 °F - 37.4 °F 54% 30.21 in 6.2 mi NNE 11.5 mph - N/A   Partly Cloudy
3:30 PM 55.4 °F - 33.8 °F 44% 30.21 in 6.2 mi ENE 12.7 mph - N/A   Partly Cloudy
4:00 PM 55 °F - 33 °F 31% 30.23 in 19 mi NE 12.7 mph - -   Scattered Clouds
4:00 PM 55.4 °F - 35.6 °F 47% 30.21 in 6.2 mi ENE 12.7 mph - N/A   Partly Cloudy
4:30 PM 55.4 °F - 37.4 °F 51% 30.21 in 6.2 mi NE 11.5 mph - N/A   Partly Cloudy
5:00 PM 54 °F - 33 °F 33% 30.24 in 19 mi NE 12.7 mph - -  
5:00 PM 53.6 °F - 35.6 °F 51% 30.24 in 6.2 mi NE 13.8 mph - N/A   Partly Cloudy
5:30 PM 53.6 °F - 35.6 °F 51% 30.24 in 6.2 mi NNE 12.7 mph - N/A   Partly Cloudy
6:00 PM 53 °F - 35 °F 38% 30.27 in 19 mi NNE 9.2 mph - -  
6:00 PM 51.8 °F - 37.4 °F 58% 30.24 in 6.2 mi NNE 9.2 mph - N/A   Partly Cloudy
6:30 PM 51.8 °F - 35.6 °F 54% 30.27 in 6.2 mi NNE 11.5 mph - N/A   Partly Cloudy
7:00 PM 49 °F - 35 °F 46% 30.32 in 19 mi NNE 10.4 mph - -   Scattered Clouds
7:00 PM 50.0 °F - 35.6 °F 58% 30.30 in 6.2 mi NNE 10.4 mph - N/A   Partly Cloudy
7:30 PM 48.2 °F - 35.6 °F 62% 30.30 in 6.2 mi NNE 5.8 mph - N/A   Partly Cloudy
8:00 PM 44 °F - 35 °F 61% 30.36 in 19 mi Calm Calm - -  
8:00 PM 44.6 °F - 35.6 °F 71% 30.30 in 6.2 mi Calm Calm - N/A   Partly Cloudy
8:30 PM 48.2 °F - 35.6 °F 62% 30.33 in 6.2 mi NE 9.2 mph - N/A   Partly Cloudy
9:00 PM 44 °F - 35 °F 59% 30.39 in 19 mi North 4.6 mph - -  
9:00 PM 44.6 °F 41.4 °F 35.6 °F 71% 30.33 in 6.2 mi NNE 5.8 mph - N/A   Partly Cloudy
9:30 PM 46.4 °F 42.4 °F 35.6 °F 66% 30.33 in 6.2 mi NNE 8.1 mph - N/A   Partly Cloudy
10:00 PM 45 °F - 34 °F 56% 30.40 in 19 mi NNE 8.1 mph - -   Scattered Clouds
10:00 PM 44.6 °F 40.2 °F 35.6 °F 71% 30.36 in 6.2 mi NE 8.1 mph - N/A   Partly Cloudy
10:30 PM 42.8 °F - 35.6 °F 76% 30.36 in 6.2 mi Variable 1.2 mph - N/A   Partly Cloudy
11:00 PM 42 °F - 34 °F 65% 30.43 in 19 mi North 2.3 mph - -  
11:00 PM 42.8 °F - 35.6 °F 76% 30.36 in 6.2 mi Variable 2.3 mph - N/A   Partly Cloudy